Total_Precipitation_Accumulation
1.79 1.73 1.66 1.42 1.25 1.22 1.22 1.21 1.17 1.17 1.09 1.04 1.00 1.03 1.16 1.16 1.17 1.35 1.44 1.45 1.58 1.68 1.64 1.67 1.84 1.95 2.06 2.07 2.09 2.09 2.13 2.10 1.97 1.72 1.38 1.23 1.38 1.43 1.47 1.28 1.25 1.31 1.26
1.46 1.35 1.23 1.15 1.07 1.05 1.04 0.98 0.92 0.97 0.94 0.99 1.00 0.92 1.07 1.21 1.23 1.27 1.26 1.25 1.39 1.49 1.50 1.56 1.60 1.61 1.72 1.86 1.98 1.95 2.02 2.05 2.02 1.91 1.60 1.40 1.43 1.54 1.72 1.66 1.51 1.39 1.37
1.33 1.24 1.14 1.06 1.07 1.04 0.94 0.89 0.76 0.72 0.80 0.91 1.06 1.03 1.00 1.08 1.16 1.17 1.15 1.16 1.20 1.24 1.27 1.34 1.37 1.47 1.61 1.62 1.70 1.78 1.85 1.89 2.00 1.96 1.84 1.74 1.62 1.58 1.67 1.64 1.67 1.78 1.69
1.48 1.34 1.24 1.15 1.06 1.03 0.88 0.79 0.71 0.74 0.81 0.82 0.82 0.92 0.98 1.03 1.08 1.08 1.06 1.04 1.04 1.04 1.14 1.21 1.26 1.32 1.44 1.50 1.52 1.65 1.78 1.86 1.89 1.86 1.80 1.74 1.71 1.70 1.70 1.68 1.76 1.89 1.96
1.20 0.99 0.91 0.92 0.90 0.84 0.79 0.73 0.66 0.63 0.62 0.68 0.67 0.69 0.77 0.88 0.92 0.90 0.91 0.96 1.00 1.00 1.08 1.11 1.15 1.16 1.21 1.28 1.27 1.45 1.59 1.76 1.83 1.86 1.77 1.68 1.62 1.64 1.64 1.64 1.72 1.95 2.01
0.86 0.79 0.77 0.72 0.69 0.67 0.68 0.67 0.62 0.56 0.50 0.53 0.54 0.61 0.65 0.69 0.85 0.87 0.83 0.86 0.93 0.95 0.99 1.03 1.12 1.16 1.11 1.08 1.06 1.12 1.26 1.37 1.56 1.69 1.72 1.65 1.56 1.54 1.67 1.79 1.79 1.93 2.07
0.57 0.53 0.56 0.61 0.58 0.56 0.62 0.65 0.64 0.60 0.55 0.54 0.54 0.58 0.55 0.55 0.68 0.69 0.80 0.94 0.92 0.87 0.84 0.97 1.06 1.10 1.15 1.15 1.04 1.02 1.02 1.06 1.17 1.35 1.48 1.48 1.47 1.51 1.62 1.76 1.86 1.94 1.85
0.49 0.44 0.43 0.49 0.53 0.54 0.57 0.60 0.61 0.60 0.58 0.63 0.62 0.63 0.54 0.47 0.56 0.62 0.76 0.83 0.83 0.78 0.80 0.89 1.01 1.12 1.18 1.21 1.14 1.18 1.11 0.98 0.97 1.05 1.22 1.33 1.37 1.55 1.73 1.90 2.04 2.06 1.94
0.45 0.45 0.45 0.46 0.51 0.54 0.53 0.52 0.52 0.53 0.52 0.59 0.68 0.67 0.57 0.49 0.53 0.60 0.74 0.83 0.88 0.85 0.82 0.85 1.00 1.07 1.25 1.31 1.21 1.26 1.23 1.01 0.94 1.04 1.08 1.18 1.31 1.49 1.70 1.93 2.04 2.08 2.06
0.40 0.44 0.50 0.53 0.52 0.51 0.57 0.61 0.58 0.54 0.53 0.55 0.58 0.57 0.51 0.49 0.52 0.55 0.66 0.70 0.82 0.89 0.90 0.88 1.09 1.16 1.27 1.25 1.16 1.32 1.40 1.21 0.97 0.95 1.03 1.16 1.27 1.43 1.70 1.87 2.13 2.16 2.01
0.43 0.48 0.50 0.50 0.52 0.57 0.61 0.66 0.68 0.64 0.57 0.52 0.49 0.48 0.47 0.47 0.51 0.51 0.58 0.52 0.57 0.68 0.77 0.81 0.81 0.98 1.05 1.10 1.16 1.20 1.34 1.22 1.06 1.15 1.25 1.27 1.36 1.44 1.58 1.73 1.97 2.16 2.12
0.39 0.41 0.42 0.44 0.48 0.55 0.62 0.62 0.63 0.66 0.64 0.59 0.52 0.48 0.48 0.47 0.46 0.46 0.51 0.52 0.57 0.61 0.62 0.68 0.75 0.91 0.96 1.00 1.01 1.04 1.12 1.13 1.13 1.29 1.33 1.23 1.26 1.34 1.42 1.58 1.73 1.85 1.76
0.37 0.39 0.43 0.48 0.52 0.54 0.61 0.63 0.63 0.65 0.66 0.66 0.66 0.63 0.58 0.53 0.48 0.52 0.53 0.54 0.59 0.58 0.62 0.73 0.77 0.85 0.80 0.80 0.89 0.94 0.99 1.15 1.28 1.25 1.23 1.17 1.14 1.20 1.26 1.42 1.57 1.70 1.66
0.45 0.45 0.48 0.52 0.58 0.60 0.61 0.66 0.69 0.71 0.74 0.73 0.70 0.69 0.65 0.61 0.53 0.49 0.48 0.50 0.57 0.59 0.65 0.75 0.78 0.80 0.75 0.75 0.82 0.90 0.99 1.15 1.33 1.20 1.08 1.06 1.08 1.17 1.26 1.30 1.38 1.43 1.58
0.45 0.48 0.53 0.56 0.62 0.68 0.68 0.69 0.73 0.77 0.87 0.88 0.81 0.79 0.74 0.68 0.68 0.72 0.64 0.58 0.62 0.64 0.69 0.77 0.86 0.92 0.89 0.89 0.96 0.98 1.02 1.04 1.13 1.07 1.08 1.14 1.20 1.21 1.27 1.35 1.36 1.34 1.34
0.46 0.49 0.51 0.55 0.59 0.64 0.71 0.74 0.79 0.80 0.88 0.89 0.90 0.87 0.76 0.77 0.80 0.82 0.82 0.77 0.76 0.77 0.84 0.83 0.94 1.07 1.11 1.11 1.15 1.17 1.18 1.14 1.16 1.14 1.17 1.21 1.22 1.22 1.23 1.34 1.44 1.46 1.37
0.46 0.50 0.53 0.54 0.57 0.63 0.66 0.73 0.77 0.76 0.76 0.76 0.78 0.81 0.78 0.77 0.74 0.74 0.79 0.83 0.85 0.89 0.83 0.84 1.05 1.12 1.11 1.11 1.17 1.23 1.18 1.07 1.10 1.14 1.12 1.13 1.14 1.15 1.18 1.23 1.31 1.36 1.34
0.48 0.53 0.58 0.60 0.63 0.66 0.66 0.66 0.69 0.73 0.72 0.66 0.66 0.70 0.73 0.74 0.72 0.72 0.80 0.84 0.86 0.91 0.90 1.04 1.21 1.27 1.22 1.16 1.13 1.10 1.03 0.97 0.96 0.99 1.05 1.08 1.13 1.17 1.18 1.17 1.17 1.21 1.23
0.50 0.51 0.56 0.62 0.63 0.63 0.65 0.66 0.65 0.66 0.67 0.65 0.66 0.70 0.74 0.74 0.75 0.76 0.78 0.79 0.85 0.91 0.98 1.09 1.21 1.29 1.23 1.10 1.01 0.98 0.95 0.93 0.90 0.92 0.98 1.04 1.07 1.11 1.10 1.10 1.09 1.14 1.16
0.52 0.63 0.65 0.63 0.61 0.62 0.64 0.66 0.67 0.70 0.73 0.72 0.72 0.76 0.78 0.74 0.73 0.79 0.81 0.83 0.89 0.95 0.97 0.99 0.99 0.98 0.92 0.90 0.93 0.92 0.92 0.95 0.94 0.92 0.97 1.01 1.07 1.14 1.13 1.09 1.08 1.08 1.09
0.57 0.66 0.70 0.64 0.58 0.60 0.65 0.69 0.68 0.68 0.71 0.73 0.72 0.76 0.82 0.75 0.76 0.79 0.80 0.80 0.86 0.91 0.93 0.93 0.95 0.95 0.93 0.91 0.93 0.94 0.94 0.94 0.95 0.97 1.02 1.05 1.07 1.10 1.15 1.16 1.12 1.12 1.14
0.57 0.64 0.67 0.64 0.61 0.64 0.70 0.72 0.71 0.67 0.65 0.65 0.64 0.69 0.76 0.73 0.78 0.79 0.79 0.81 0.83 0.86 0.87 0.87 0.85 0.89 0.95 0.96 0.99 1.02 1.02 1.01 1.01 1.08 1.14 1.16 1.17 1.14 1.13 1.15 1.13 1.13 1.14
0.56 0.57 0.60 0.64 0.67 0.75 0.76 0.75 0.72 0.69 0.67 0.65 0.66 0.66 0.68 0.68 0.72 0.75 0.78 0.81 0.83 0.85 0.87 0.88 0.85 0.84 0.86 0.86 0.89 0.95 0.98 0.98 1.02 1.12 1.24 1.29 1.31 1.29 1.26 1.21 1.17 1.19 1.19
0.57 0.62 0.65 0.67 0.68 0.71 0.72 0.75 0.76 0.74 0.72 0.69 0.68 0.70 0.71 0.69 0.71 0.74 0.73 0.74 0.76 0.78 0.79 0.82 0.82 0.81 0.83 0.86 0.87 0.88 0.88 0.91 0.95 1.03 1.15 1.28 1.34 1.35 1.38 1.39 1.33 1.30 1.30
0.64 0.66 0.68 0.72 0.71 0.73 0.76 0.75 0.77 0.77 0.76 0.75 0.76 0.74 0.75 0.74 0.73 0.75 0.73 0.71 0.72 0.73 0.75 0.77 0.78 0.77 0.78 0.80 0.84 0.88 1.03 1.05 0.98 0.96 1.01 1.16 1.26 1.30 1.32 1.36 1.41 1.42 1.43
0.72 0.73 0.72 0.74 0.79 0.80 0.82 0.82 0.80 0.80 0.80 0.79 0.79 0.79 0.79 0.81 0.83 0.86 0.85 0.84 0.84 0.80 0.80 0.82 0.82 0.84 0.84 0.82 0.83 0.93 1.02 0.98 0.96 1.01 1.01 1.05 1.15 1.24 1.30 1.34 1.36 1.43 1.49